Olympia, WA

2:14 AM PST on December 13, 2017 (GMT -0800)
Olympia

Weather History for KOLM - June, 2012

Change the Weather History Date:

Friday, June 22, 2012

  Actual Average Record
Temperature  
Mean Temperature 57 °F 60 °F  
Max Temperature 61 °F 72 °F 96 °F (1958)
Min Temperature 52 °F 48 °F 38 °F (1960)
Degree Days  
Heating Degree Days 8 5  
Month to date heating degree days 197 149  
Since 1 June heating degree days 197 149  
Since 1 July heating degree days 5648 5345  
Cooling Degree Days 0 1  
Month to date cooling degree days 0 1  
Year to date cooling degree days 0 4  
Since 1 June cooling degree days 0 1  
Growing Degree Days 8 (Base 50)    
Moisture  
Dew Point 51 °F    
Average Humidity 88    
Maximum Humidity 100    
Minimum Humidity 75    
Precipitation  
Precipitation 0.13 in 0.05 in 0.35 in (1969)
Month to date precipitation 1.64 1.42  
Year to date precipitation 31.02 25.69  
Sea Level Pressure  
Sea Level Pressure 29.78 in    
Wind  
Wind Speed 4 mph (SSE)    
Max Wind Speed 13 mph    
Max Gust Speed 20 mph    
Visibility 9 miles    
Events Rain    
T = Trace of Precipitation, MM = Missing Value Source: NWS Daily Summary

Daily Weather History Graph

Daily Weather History Graph

Search for Another Location

Airport or City:

Trip Planner

Search our weather history database for the weather conditions in past years. The results will help you decide how hot, cold, wet, or windy it might be!

Date:

Astronomy

Jun. 22, 2012 Rise Set
Actual Time 5:17 AM PDT 9:10 PM PDT
Civil Twilight 4:37 AM PDT 9:50 PM PDT
Nautical Twilight 3:42 AM PDT 10:44 PM PDT
Astronomical Twilight 2:20 AM PDT 12:06 AM PDT
Moon 8:34 AM PDT (6/22) 10:55 PM PDT (6/22)
Length of Visible Light 17h 13m
Length of Day
15h 53m
Waxing Crescent, 10% of the Moon is Illuminated
Jun 22
Waxing Crescent
Jun 26
First Quarter
Jul 3
Full
Jul 10
Last Quarter
Jul 18
New

Hourly Weather History & Observations

Time (PDT) Temp. Dew Point Humidity Pressure Visibility Wind Dir Wind Speed Gust Speed Precip Events Conditions
12:54 AM 53.1 °F 46.9 °F 80% 29.79 in 10.0 mi Calm Calm - N/A   Partly Cloudy
1:54 AM 52.0 °F 46.0 °F 80% 29.79 in 10.0 mi Calm Calm - N/A   Clear
2:54 AM 53.1 °F 46.9 °F 80% 29.78 in 10.0 mi Calm Calm - N/A   Overcast
3:54 AM 53.1 °F 48.9 °F 86% 29.79 in 10.0 mi Calm Calm - N/A   Overcast
4:54 AM 55.0 °F 48.0 °F 77% 29.79 in 10.0 mi SW 6.9 mph - N/A   Overcast
5:54 AM 55.0 °F 48.0 °F 77% 29.80 in 10.0 mi SSW 8.1 mph - N/A   Overcast
6:54 AM 55.0 °F 48.9 °F 80% 29.81 in 10.0 mi SSW 9.2 mph - N/A   Overcast
7:54 AM 55.4 °F 48.2 °F 77% 29.80 in 10.0 mi WSW 8.1 mph - N/A   Mostly Cloudy
8:54 AM 55.0 °F 50.0 °F 83% 29.82 in 10.0 mi South 6.9 mph - 0.00 in Rain Light Rain
9:54 AM 55.0 °F 50.0 °F 83% 29.83 in 10.0 mi South 5.8 mph - 0.00 in   Overcast
10:54 AM 55.9 °F 52.0 °F 87% 29.82 in 10.0 mi South 5.8 mph - 0.01 in Rain Light Rain
11:54 AM 55.9 °F 53.1 °F 90% 29.81 in 6.0 mi South 5.8 mph - 0.03 in Rain Light Rain
12:54 PM 55.9 °F 52.0 °F 87% 29.81 in 10.0 mi South 3.5 mph - 0.01 in   Mostly Cloudy
12:56 PM 55.4 °F 51.8 °F 88% 29.80 in 10.0 mi South 3.5 mph - N/A   Mostly Cloudy
1:32 PM 57.2 °F 51.8 °F 82% 29.80 in 10.0 mi Calm Calm - N/A   Overcast
1:54 PM 57.9 °F 52.0 °F 81% 29.79 in 10.0 mi East 3.5 mph - N/A   Overcast
2:25 PM 57.2 °F 51.8 °F 82% 29.79 in 10.0 mi East 4.6 mph - 0.00 in Rain Light Rain
2:54 PM 57.9 °F 51.1 °F 78% 29.78 in 10.0 mi Calm Calm - 0.00 in Rain Light Rain
3:54 PM 61.0 °F 51.1 °F 70% 29.78 in 10.0 mi Variable 3.5 mph - 0.00 in   Mostly Cloudy
4:54 PM 59.0 °F 51.1 °F 75% 29.76 in 10.0 mi NE 4.6 mph - N/A   Overcast
5:54 PM 59.0 °F 53.1 °F 81% 29.74 in 10.0 mi NE 4.6 mph - N/A   Overcast
6:54 PM 59.0 °F 52.0 °F 78% 29.73 in 10.0 mi NE 3.5 mph - N/A   Mostly Cloudy
7:54 PM 57.9 °F 51.1 °F 78% 29.73 in 10.0 mi Calm Calm - N/A   Overcast
8:54 PM 57.9 °F 52.0 °F 81% 29.73 in 10.0 mi Calm Calm - N/A   Overcast
9:54 PM 55.0 °F 53.1 °F 93% 29.73 in 9.0 mi Calm Calm - 0.01 in Rain Light Rain
10:54 PM 55.0 °F 53.1 °F 93% 29.73 in 7.0 mi Calm Calm - 0.01 in Rain Light Rain
11:12 PM 55.4 °F 53.6 °F 94% 29.73 in 7.0 mi Calm Calm - 0.01 in Rain Light Rain
11:47 PM 55.4 °F 53.6 °F 94% 29.73 in 4.0 mi Calm Calm - 0.02 in Rain Rain
11:54 PM 54.0 °F 53.1 °F 97% 29.73 in 4.0 mi SSE 3.5 mph - 0.03 in Rain Light Rain